Location: Orange
(33.2833°S, 149.1000°E)
Time: 11:57:07
(UTC+11:00)

Envisat - Pass Details

Date: 07 December 2021
Orbit: 764 x 766 km, 98.2° (Epoch: 22 January)

Event Time Altitude Azimuth Distance (km) Brightness Sun altitude
Rises 05:00:50 0° 22° (NNE) 3,216 6.1 -9.1°
Reaches altitude 10° 05:03:08 10° 25° (NNE) 2,298 5.4 -8.7°
Maximum altitude 05:08:08 63° 105° (ESE) 862 3.6 -7.8°
Drops below altitude 10° 05:13:12 10° 185° (S) 2,327 5.9 -6.9°
Sets 05:15:32 0° 188° (S) 3,260 6.6 -6.5°
